Change the Weather History Date:

Saturday, October 6, 2012

  Actual Average Record
Temperature  
Mean Temperature 51 °F 52 °F  
Max Temperature 61 °F 60 °F 82 °F (2007)
Min Temperature 40 °F 43 °F 25 °F (1958)
Degree Days  
Heating Degree Days 14 13  
Month to date heating degree days 40 75  
Since 1 July heating degree days 254 332  
Cooling Degree Days 0 0  
Month to date cooling degree days 1 0  
Year to date cooling degree days 548 379  
Moisture  
Dew Point 45 °F    
Average Humidity 74    
Maximum Humidity 93    
Minimum Humidity 54    
Precipitation  
Precipitation 0.20 in 0.11 in 1.52 in (1959)
Month to date precipitation 0.43 0.67  
Year to date precipitation 29.73 30.51  
Snow  
Snow 0.00 in 0.00 in 0.00 in (2002)
Month to date snowfall 0.0 0.0  
Since 1 July snowfall 0.0 0.0  
Since 1 September snowfall 0.0 0.0  
Snow Depth 0.00 in    
Sea Level Pressure  
Sea Level Pressure 29.87 in    
Wind  
Wind Speed 9 mph (WNW)    
Max Wind Speed 17 mph    
Max Gust Speed 22 mph    
Visibility 8 miles    
Events Rain    
T = Trace of Precipitation, MM = Missing Value Source: NWS Daily Summary

Daily Weather History Graph

Daily Weather History Graph

Search for Another Location

Airport or City:

Trip Planner

Search our weather history database for the weather conditions in past years. The results will help you decide how hot, cold, wet, or windy it might be!

Date:

Astronomy

Oct. 06, 2012 Rise Set
Actual Time 7:06 AM EDT 6:36 PM EDT
Civil Twilight 6:38 AM EDT 7:04 PM EDT
Nautical Twilight 6:06 AM EDT 7:36 PM EDT
Astronomical Twilight 5:33 AM EDT 8:09 PM EDT
Moon 10:44 PM EDT (10/6) 1:04 PM EDT (10/6)
Length of Visible Light 12h 25m
Length of Day
11h 29m
Waning Gibbous, 65% of the Moon is Illuminated
Oct 6
Waning Gibbous
Oct 8
Last Quarter
Oct 15
New
Oct 21
First Quarter
Oct 29
Full

Hourly Weather History & Observations

Time (EDT) Temp. Windchill Dew Point Humidity Pressure Visibility Wind Dir Wind Speed Gust Speed Precip Events Conditions
12:53 AM 59.0 °F - 55.0 °F 87% 29.88 in 10.0 mi South 4.6 mph - N/A   Partly Cloudy
1:53 AM 59.0 °F - 55.0 °F 87% 29.84 in 10.0 mi South 6.9 mph - N/A   Clear
2:53 AM 60.1 °F - 54.0 °F 80% 29.81 in 10.0 mi South 11.5 mph - N/A   Clear
3:53 AM 60.1 °F - 53.1 °F 78% 29.79 in 10.0 mi SSW 8.1 mph - N/A   Partly Cloudy
4:53 AM 60.1 °F - 53.1 °F 78% 29.77 in 10.0 mi SSW 8.1 mph - N/A   Clear
5:53 AM 60.1 °F - 53.1 °F 78% 29.76 in 10.0 mi SSW 6.9 mph - N/A   Clear
6:53 AM 61.0 °F - 52.0 °F 72% 29.76 in 10.0 mi SSW 10.4 mph - N/A   Scattered Clouds
7:43 AM 55.4 °F - 51.8 °F 88% 29.80 in 10.0 mi NNW 12.7 mph - N/A   Mostly Cloudy
7:53 AM 53.1 °F - 50.0 °F 89% 29.78 in 8.0 mi NW 8.1 mph 18.4 mph 0.00 in Rain Light Rain
8:03 AM 53.6 °F - 51.8 °F 94% 29.79 in 2.0 mi NNW 8.1 mph - 0.03 in Rain Heavy Rain
8:12 AM 51.8 °F - 50.0 °F 94% 29.80 in 4.0 mi NW 10.4 mph - 0.04 in Rain Light Rain
8:22 AM 51.8 °F - 48.2 °F 88% 29.79 in 5.0 mi NNW 6.9 mph - 0.05 in Rain Light Rain
8:44 AM 50.0 °F - 48.2 °F 94% 29.80 in 4.0 mi NNW 15.0 mph - 0.08 in Rain Rain
8:53 AM 50.0 °F - 48.0 °F 93% 29.82 in 5.0 mi NW 10.4 mph 21.9 mph 0.10 in Rain Rain
9:13 AM 48.2 °F - 46.4 °F 93% 29.80 in 5.0 mi NNW 11.5 mph - N/A Rain Rain
9:53 AM 48.9 °F - 46.9 °F 93% 29.83 in 10.0 mi NW 6.9 mph - 0.06 in   Overcast
10:30 AM 48.2 °F - 46.4 °F 93% 29.84 in 6.0 mi NW 15.0 mph 19.6 mph 0.00 in Rain Light Rain
10:53 AM 48.0 °F - 46.0 °F 93% 29.85 in 5.0 mi NNW 11.5 mph - 0.01 in Rain Light Rain
11:16 AM 46.4 °F 41.5 °F 44.6 °F 93% 29.86 in 1.0 mi NW 10.4 mph 21.9 mph 0.01 in Rain Light Rain
11:53 AM 46.9 °F - 45.0 °F 93% 29.87 in 1.0 mi NNW 11.5 mph - 0.03 in Rain Light Rain
12:19 PM 46.4 °F 42.4 °F 44.6 °F 93% 29.87 in 1.0 mi NW 8.1 mph - 0.00 in Rain Light Rain
12:41 PM 46.4 °F 41.9 °F 44.6 °F 93% 29.88 in 10.0 mi WNW 9.2 mph - 0.00 in   Overcast
12:53 PM 46.9 °F - 44.1 °F 90% 29.89 in 10.0 mi NW 11.5 mph 18.4 mph 0.00 in   Overcast
1:20 PM 48.2 °F - 44.6 °F 87% 29.88 in 10.0 mi NW 9.2 mph - N/A   Overcast
1:34 PM 48.2 °F - 44.6 °F 87% 29.88 in 10.0 mi WNW 9.2 mph - N/A   Overcast
1:53 PM 48.9 °F - 45.0 °F 86% 29.88 in 10.0 mi WNW 8.1 mph - N/A   Overcast
2:17 PM 48.2 °F - 44.6 °F 87% 29.88 in 10.0 mi WNW 9.2 mph - N/A   Overcast
2:53 PM 52.0 °F - 45.0 °F 77% 29.88 in 10.0 mi WNW 10.4 mph - N/A   Mostly Cloudy
3:14 PM 50.0 °F - 42.8 °F 76% 29.89 in 10.0 mi WSW 11.5 mph - N/A   Mostly Cloudy
3:39 PM 51.8 °F - 42.8 °F 71% 29.89 in 10.0 mi West 10.4 mph - N/A   Overcast
3:53 PM 52.0 °F - 41.0 °F 66% 29.89 in 10.0 mi WNW 11.5 mph - N/A   Mostly Cloudy
4:53 PM 52.0 °F - 37.9 °F 59% 29.89 in 10.0 mi WNW 11.5 mph - N/A   Partly Cloudy
5:53 PM 52.0 °F - 36.0 °F 54% 29.91 in 10.0 mi WNW 9.2 mph 21.9 mph N/A   Mostly Cloudy
6:53 PM 48.0 °F - 35.1 °F 61% 29.94 in 10.0 mi NW 5.8 mph - N/A   Clear
7:53 PM 46.0 °F 43.1 °F 34.0 °F 63% 29.97 in 10.0 mi WNW 5.8 mph - N/A   Clear
8:53 PM 45.0 °F 40.6 °F 33.1 °F 63% 29.99 in 10.0 mi West 8.1 mph - N/A   Clear
9:53 PM 45.0 °F 42.6 °F 34.0 °F 65% 30.02 in 10.0 mi WNW 4.6 mph - N/A   Mostly Cloudy
10:53 PM 45.0 °F 40.6 °F 35.1 °F 68% 30.04 in 10.0 mi NW 8.1 mph - N/A   Overcast
11:53 PM 43.0 °F 38.8 °F 33.1 °F 68% 30.03 in 10.0 mi WNW 6.9 mph - N/A   Clear